When you browse on this site, cookies collect data to enhance your experience and personalize the content and advertising you see.
Visit our Privacy Policy to learn more. By continuing to use the site, you agree to this use of cookies and data.
  • în România
  • Lista ţărilor
  • Pe 7 zile
  • Temperatura apei
  • Hartă satelitară
  • Meteo pe hartă
  • Widget-uri
  • user-avatar
    Intrare

    Meteo pe oră la Ussodica

    Astăzi, 21 Martie, Joi

    Timp Temperatura Precipitaţii Vânt Presiune Umiditate
    00:00 -1°C° 0.3 mm 3 m/s 751 mmHg 81%
    01:00 0°C° 0.3 mm 3 m/s 750 mmHg 82%
    02:00 0°C° 0 mm 3 m/s 749 mmHg 88%
    03:00 0°C° 0.7 mm 3 m/s 749 mmHg 89%
    04:00 0°C° 0.7 mm 3 m/s 749 mmHg 89%
    05:00 0°C° 0.7 mm 3 m/s 749 mmHg 90%
    06:00 +1°C° 0 mm 3 m/s 749 mmHg 89%
    07:00 +1°C° 0 mm 3 m/s 749 mmHg 88%
    08:00 0°C° 0 mm 4 m/s 750 mmHg 85%
    09:00 +1°C° 0 mm 4 m/s 750 mmHg 82%
    10:00 +3°C° 0 mm 4 m/s 750 mmHg 79%
    11:00 +4°C° 0 mm 4 m/s 750 mmHg 76%
    12:00 +5°C° 0 mm 4 m/s 750 mmHg 72%
    13:00 +5°C° 0 mm 4 m/s 750 mmHg 67%
    14:00 +6°C° 0 mm 4 m/s 750 mmHg 63%
    15:00 +7°C° 0 mm 3 m/s 750 mmHg 66%
    16:00 +5°C° 0 mm 3 m/s 750 mmHg 69%
    17:00 +6°C° 0 mm 2 m/s 750 mmHg 72%
    18:00 +5°C° 0 mm 2 m/s 750 mmHg 77%
    19:00 +4°C° 0 mm 2 m/s 750 mmHg 81%
    20:00 +3°C° 0 mm 2 m/s 750 mmHg 85%
    21:00 +3°C° 0.1 mm 2 m/s 749 mmHg 86%
    22:00 +3°C° 0.1 mm 2 m/s 749 mmHg 87%
    23:00 +3°C° 0.1 mm 2 m/s 748 mmHg 87%

    Mâine, 22 Martie, Vineri

    Timp Temperatura Precipitaţii Vânt Presiune Umiditate
    00:00 +3°C° 0.3 mm 3 m/s 747 mmHg 89%
    01:00 +3°C° 0.3 mm 3 m/s 747 mmHg 90%
    02:00 +3°C° 0.3 mm 4 m/s 746 mmHg 92%
    03:00 +3°C° 0.6 mm 4 m/s 745 mmHg 92%
    04:00 +4°C° 0.6 mm 4 m/s 744 mmHg 92%
    05:00 +4°C° 0.6 mm 4 m/s 744 mmHg 92%
    06:00 +3°C° 0.4 mm 5 m/s 744 mmHg 87%
    07:00 +2°C° 0.4 mm 6 m/s 744 mmHg 82%
    08:00 +2°C° 0.4 mm 7 m/s 744 mmHg 77%
    09:00 +2°C° 0.1 mm 7 m/s 745 mmHg 71%
    10:00 +1°C° 0.1 mm 8 m/s 746 mmHg 64%
    11:00 0°C° 0.1 mm 8 m/s 747 mmHg 57%
    12:00 0°C° 0 mm 7 m/s 747 mmHg 59%
    13:00 0°C° 0 mm 7 m/s 748 mmHg 61%
    14:00 0°C° 0 mm 7 m/s 748 mmHg 63%
    15:00 -1°C° 0.1 mm 7 m/s 748 mmHg 65%
    16:00 -1°C° 0.1 mm 7 m/s 749 mmHg 67%
    17:00 -1°C° 0.1 mm 7 m/s 749 mmHg 69%
    18:00 -2°C° 0 mm 6 m/s 749 mmHg 70%
    19:00 -2°C° 0 mm 6 m/s 750 mmHg 72%
    20:00 -2°C° 0 mm 6 m/s 750 mmHg 73%
    21:00 -2°C° 0 mm 6 m/s 751 mmHg 75%
    22:00 -2°C° 0 mm 6 m/s 751 mmHg 77%
    23:00 -2°C° 0 mm 6 m/s 751 mmHg 78%

    Poimâine, 23 Martie, Sâmbătă

    Timp Temperatura Precipitaţii Vânt Presiune Umiditate
    00:00 -2°C° 0 mm 5 m/s 752 mmHg 80%
    01:00 -2°C° 0 mm 5 m/s 752 mmHg 82%
    02:00 -2°C° 0 mm 5 m/s 752 mmHg 83%
    03:00 -2°C° 0 mm 4 m/s 753 mmHg 84%
    04:00 -2°C° 0 mm 4 m/s 753 mmHg 86%
    05:00 -3°C° 0 mm 4 m/s 753 mmHg 87%
    06:00 -2°C° 0 mm 3 m/s 754 mmHg 86%
    07:00 -1°C° 0 mm 3 m/s 754 mmHg 85%
    08:00 -1°C° 0 mm 3 m/s 754 mmHg 84%
    09:00 +1°C° 0 mm 2 m/s 754 mmHg 81%
    10:00 +2°C° 0 mm 2 m/s 754 mmHg 77%
    11:00 +4°C° 0 mm 1 m/s 754 mmHg 73%
    12:00 +4°C° 0 mm 1 m/s 754 mmHg 70%
    13:00 +5°C° 0 mm 1 m/s 753 mmHg 67%
    14:00 +6°C° 0 mm 1 m/s 753 mmHg 64%
    15:00 +6°C° 0 mm 1 m/s 752 mmHg 66%
    16:00 +6°C° 0 mm 1 m/s 752 mmHg 68%
    17:00 +5°C° 0 mm 1 m/s 751 mmHg 70%
    18:00 +3°C° 0 mm 2 m/s 751 mmHg 73%
    19:00 +3°C° 0 mm 2 m/s 751 mmHg 77%
    20:00 +1°C° 0 mm 3 m/s 750 mmHg 80%
    21:00 +1°C° 0.1 mm 3 m/s 750 mmHg 77%
    22:00 +1°C° 0.1 mm 3 m/s 749 mmHg 74%
    23:00 +1°C° 0.1 mm 3 m/s 748 mmHg 72%

    24 Martie, Duminică

    Timp Temperatura Precipitaţii Vânt Presiune Umiditate
    00:00 +1°C° 1.1 mm 3 m/s 748 mmHg 74%
    01:00 +1°C° 1.1 mm 3 m/s 747 mmHg 77%
    02:00 +1°C° 1.1 mm 3 m/s 747 mmHg 79%
    03:00 +1°C° 0.1 mm 3 m/s 746 mmHg 83%
    04:00 +1°C° 0.1 mm 3 m/s 746 mmHg 87%
    05:00 +2°C° 0.1 mm 3 m/s 746 mmHg 91%
    06:00 +2°C° 0 mm 3 m/s 746 mmHg 89%
    07:00 +2°C° 0 mm 3 m/s 746 mmHg 87%
    08:00 +1°C° 0 mm 4 m/s 746 mmHg 86%
    09:00 +3°C° 0 mm 4 m/s 746 mmHg 77%
    10:00 +3°C° 0 mm 4 m/s 746 mmHg 69%
    11:00 +3°C° 0 mm 5 m/s 746 mmHg 60%
    12:00 +5°C° 0 mm 5 m/s 746 mmHg 57%
    13:00 +5°C° 0 mm 5 m/s 746 mmHg 54%
    14:00 +5°C° 0 mm 5 m/s 746 mmHg 50%
    15:00 +4°C° 0 mm 4 m/s 746 mmHg 53%
    16:00 +4°C° 0 mm 4 m/s 746 mmHg 55%
    17:00 +3°C° 0 mm 3 m/s 746 mmHg 58%
    18:00 +2°C° 0 mm 3 m/s 746 mmHg 62%
    19:00 +1°C° 0 mm 2 m/s 747 mmHg 67%
    20:00 -1°C° 0 mm 2 m/s 747 mmHg 71%
    21:00 -1°C° 0 mm 2 m/s 747 mmHg 72%
    22:00 -2°C° 0 mm 2 m/s 747 mmHg 73%
    23:00 -2°C° 0 mm 2 m/s 747 mmHg 75%

    25 Martie, Luni

    Timp Temperatura Precipitaţii Vânt Presiune Umiditate
    00:00 -2°C° 0 mm 2 m/s 747 mmHg 76%
    01:00 -3°C° 0 mm 2 m/s 746 mmHg 77%
    02:00 -3°C° 0 mm 2 m/s 746 mmHg 78%
    03:00 -3°C° 0 mm 2 m/s 746 mmHg 79%
    04:00 -3°C° 0 mm 2 m/s 746 mmHg 80%
    05:00 -1°C° 0 mm 1 m/s 746 mmHg 81%
    06:00 0°C° 0 mm 1 m/s 746 mmHg 77%
    07:00 -1°C° 0 mm 2 m/s 745 mmHg 73%
    08:00 -1°C° 0 mm 2 m/s 745 mmHg 69%
    09:00 +2°C° 0 mm 2 m/s 745 mmHg 65%
    10:00 +3°C° 0 mm 2 m/s 745 mmHg 60%
    11:00 +3°C° 0 mm 3 m/s 744 mmHg 56%
    12:00 +4°C° 0 mm 3 m/s 744 mmHg 54%
    13:00 +4°C° 0 mm 3 m/s 743 mmHg 52%
    14:00 +4°C° 0 mm 3 m/s 743 mmHg 50%
    15:00 +4°C° 0 mm 3 m/s 742 mmHg 53%
    16:00 +4°C° 0 mm 2 m/s 742 mmHg 57%
    17:00 +4°C° 0 mm 2 m/s 741 mmHg 61%
    18:00 +3°C° 0 mm 2 m/s 741 mmHg 66%
    19:00 +1°C° 0 mm 2 m/s 740 mmHg 71%
    20:00 -1°C° 0 mm 2 m/s 740 mmHg 77%
    21:00 -1°C° 0.1 mm 2 m/s 740 mmHg 78%
    22:00 -1°C° 0.1 mm 2 m/s 740 mmHg 80%
    23:00 -1°C° 0.1 mm 2 m/s 739 mmHg 82%

    26 Martie, Marţi

    Timp Temperatura Precipitaţii Vânt Presiune Umiditate
    00:00 -1°C° 0.6 mm 2 m/s 739 mmHg 85%
    01:00 -1°C° 0.6 mm 2 m/s 739 mmHg 88%
    02:00 +1°C° 0.6 mm 2 m/s 739 mmHg 91%
    03:00 -1°C° 0.1 mm 2 m/s 739 mmHg 92%
    04:00 +1°C° 0.1 mm 1 m/s 739 mmHg 94%
    05:00 0°C° 0.1 mm 1 m/s 739 mmHg 95%
    06:00 +1°C° 0.2 mm 1 m/s 739 mmHg 94%
    07:00 +1°C° 0.2 mm 1 m/s 739 mmHg 93%
    08:00 +2°C° 0.2 mm 1 m/s 739 mmHg 91%
    09:00 +1°C° 0.2 mm 2 m/s 740 mmHg 89%
    10:00 +1°C° 0.2 mm 3 m/s 740 mmHg 86%
    11:00 +1°C° 0.2 mm 3 m/s 740 mmHg 83%
    12:00 +2°C° 0.1 mm 3 m/s 741 mmHg 82%
    13:00 +1°C° 0.1 mm 4 m/s 741 mmHg 80%
    14:00 +3°C° 0.1 mm 4 m/s 741 mmHg 78%
    15:00 +1°C° 0.1 mm 4 m/s 742 mmHg 79%
    16:00 +1°C° 0.1 mm 4 m/s 742 mmHg 80%
    17:00 +1°C° 0.1 mm 4 m/s 742 mmHg 80%
    18:00 0°C° 0.1 mm 4 m/s 743 mmHg 82%
    19:00 0°C° 0.1 mm 4 m/s 744 mmHg 83%
    20:00 -1°C° 0.1 mm 4 m/s 744 mmHg 85%
    21:00 -1°C° 0 mm 4 m/s 745 mmHg 87%
    22:00 -2°C° 0 mm 4 m/s 745 mmHg 89%
    23:00 -2°C° 0 mm 4 m/s 745 mmHg 90%
    Arată mai mult